Content
SEND FEEDBACK

Daily
Averages
Monthly
Summary
United Kingdom

LONDON, ENGLAND


Home > Europe > United Kingdom > England
Elevation: 203 feet     Latitude: 51 09N     Longitude: 000 11W

WEATHER
 
SELECT A DAY
Number of Records: 297,525;   Date Range: 7/1/96 - 10/29/14
 
SHARE

PRINT THIS DATA

[ ← Previous Day ]
WEATHER ALMANAC - JULY 8, 2013
[ Next Day → ]
[ °C ]   °F
We're sorry. There is no daily almanac available for London, England on July 8, 2013.
WEATHER BY HOUR - JULY 8, 2013
[ °C ]   °F
Local TimeTemperatureDewpointHumidityBarometerVisibilityWind DirectionWind SpeedGust SpeedPrecipitationEventsConditions
12:50 AM60.8 °F55.4 °F82 %30.51 inNE (40°)8.1 mphClear
1:20 AM60.8 °F55.4 °F82 %30.51 inNNE (30°)8.1 mphClear
1:50 AM60.8 °F55.4 °F82 %30.51 inNNE (30°)6.9 mphClear
2:20 AM59.0 °F53.6 °F82 %30.51 inNE (40°)8.1 mphClear
2:50 AM59.0 °F53.6 °F82 %30.51 inNE (40°)8.1 mphClear
3:20 AM57.2 °F53.6 °F88 %30.51 inNE (50°)5.8 mphClear
3:50 AM55.4 °F51.8 °F88 %30.51 inENE (60°)4.6 mphClear
4:20 AM57.2 °F53.6 °F88 %30.51 inNE (40°)6.9 mphClear
4:50 AM57.2 °F51.8 °F82 %30.51 inNNE (30°)3.5 mphClear
5:20 AM57.2 °F51.8 °F82 %30.51 inNE (40°)5.8 mphClear
5:50 AM57.2 °F51.8 °F82 %30.51 inNNE (20°)5.8 mphClear
6:20 AM59.0 °F51.8 °F77 %30.51 inNNE (20°)8.1 mphClear
6:50 AM59.0 °F51.8 °F77 %30.51 inNorth (10°)8.1 mphClear
7:20 AM60.8 °F53.6 °F77 %30.51 inNorth (10°)9.2 mphClear
7:50 AM62.6 °F53.6 °F72 %30.51 inNNE (20°)9.2 mphClear
8:20 AM64.4 °F51.8 °F64 %30.51 inNNE (30°)8.1 mphClear
8:50 AM66.2 °F53.6 °F64 %30.51 inNE (40°)9.2 mphClear
9:20 AM68.0 °F53.6 °F60 %30.51 inNE (50°)10.4 mphClear
9:50 AM69.8 °F53.6 °F56 %30.51 inNE (50°)12.7 mphClear
10:20 AM71.6 °F53.6 °F53 %30.51 inNE (40°)13.8 mphClear
10:50 AM73.4 °F55.4 °F53 %30.51 inENE (60°)13.8 mphClear
11:20 AM73.4 °F53.6 °F50 %30.51 inNE (50°)16.1 mphClear
11:50 AM75.2 °F53.6 °F47 %30.51 inENE (60°)16.1 mphClear
12:20 PM75.2 °F53.6 °F47 %30.51 inNE (50°)16.1 mphClear
12:50 PM75.2 °F53.6 °F47 %30.48 inNE (50°)15.0 mphClear
1:20 PM77.0 °F51.8 °F41 %30.48 inNE (40°)16.1 mphClear
1:50 PM77.0 °F51.8 °F41 %30.48 inENE (70°)16.1 mphClear
2:20 PM77.0 °F50.0 °F39 %30.48 inENE (60°)17.3 mphClear
2:50 PM77.0 °F50.0 °F39 %30.48 inNE (50°)15.0 mphClear
3:20 PM77.0 °F51.8 °F41 %30.45 inENE (60°)13.8 mphClear
3:50 PM77.0 °F53.6 °F44 %30.45 inENE (70°)15.0 mphClear
4:20 PM77.0 °F55.4 °F47 %30.45 inENE (70°)13.8 mphClear
4:50 PM77.0 °F55.4 °F47 %30.45 inENE (60°)13.8 mphClear
5:20 PM77.0 °F57.2 °F50 %30.45 inENE (60°)15.0 mphClear
5:50 PM75.2 °F57.2 °F53 %30.45 inENE (60°)13.8 mphClear
6:20 PM75.2 °F57.2 °F53 %30.42 inENE (60°)15.0 mphClear
6:50 PM73.4 °F57.2 °F57 %30.42 inENE (70°)13.8 mphClear
7:20 PM71.6 °F57.2 °F60 %30.42 inEast (80°)13.8 mphClear
7:50 PM69.8 °F57.2 °F64 %30.42 inENE (70°)13.8 mphClear
8:20 PM68.0 °F57.2 °F68 %30.42 inENE (60°)16.1 mphClear
8:50 PM66.2 °F57.2 °F73 %30.42 inENE (60°)13.8 mphClear
9:20 PM64.4 °F57.2 °F77 %30.45 inENE (70°)10.4 mphClear
9:50 PM62.6 °F55.4 °F77 %30.45 inENE (70°)10.4 mphClear
10:20 PM60.8 °F53.6 °F77 %30.45 inEast (80°)6.9 mphClear
10:50 PM60.8 °F53.6 °F77 %30.45 inENE (60°)9.2 mphClear
11:20 PM60.8 °F53.6 °F77 %30.45 inNE (50°)10.4 mphClear
11:50 PM60.8 °F53.6 °F77 %30.45 inNE (40°)9.2 mphClear
Hourly data recorded from EGKK, located miles away from London, England







STORIES FROM OUR PARTNERS